Location: Nairn
(57.5833°N, 3.8667°W)
Time: 00:52:43
(UTC+00:00)

COSMOS 2487 - Pass Details

Date: 07 August 2020
Orbit: 439 x 443 km, 74.7° (Epoch: 19 September)

Event Time Altitude Azimuth Distance (km) Brightness Sun altitude
Exits shadow 00:48:37 36° 211° (SSW) 725 2.9 -15.9°
Maximum altitude 00:49:55 86° 300° (WNW) 450 2.3 -15.8°
Drops below altitude 10° 00:53:23 10° 28° (NNE) 1,570 6.3 -15.8°
Sets 00:55:28 0° 29° (NNE) 2,445 7.5 -15.7°
